Weather History for Philadelphia Wings Airport, PA

Change the Weather History Date:

Monday, February 4, 2013

  Actual Average (KPNE) Record (KPNE)
Temperature  
Mean Temperature 26 °F -  
Max Temperature 32 °F 40 °F 60 °F (2006)
Min Temperature 21 °F 24 °F 18 °F (2007)
Degree Days  
Heating Degree Days 38    
Moisture  
Dew Point 14 °F    
Average Humidity 58    
Maximum Humidity 80    
Minimum Humidity 44    
Precipitation  
Precipitation 0.00 in - - ()
Sea Level Pressure  
Sea Level Pressure 29.96 in    
Wind  
Wind Speed 7 mph (West)    
Max Wind Speed 15 mph    
Max Gust Speed 23 mph    
Visibility 10 miles    
Events      
Averages and records for this station are not official NWS values.
T = Trace of Precipitation, MM = Missing Value Source: NWS Daily Summary

Daily Weather History Graph

Daily Weather History Graph

Search for Another Location

Airport:

Trip Planner

Search our weather history database for the weather conditions in past years. The results will help you decide how hot, cold, wet, or windy it might be!

Date:

Astronomy

Feb. 04, 2013 Rise Set
Actual Time 7:06 AM EST 5:23 PM EST
Civil Twilight 6:38 AM EST 5:52 PM EST
Nautical Twilight 6:05 AM EST 6:24 PM EST
Astronomical Twilight 5:34 AM EST 6:56 PM EST
Moon 1:39 AM EST (2/4) 11:45 AM EST (2/4)
Length of Visible Light 11h 14m
Length of Day
10h 17m
Last Quarter, 37% of the Moon is Illuminated
Feb 4
Last Quarter
Feb 10
New
Feb 17
First Quarter
Feb 25
Full
Mar 4
Last Quarter

Hourly Weather History & Observations

Time (EST) Temp. Windchill Dew Point Humidity Pressure Visibility Wind Dir Wind Speed Gust Speed Precip Events Conditions
12:15 AM 28.4 °F 18.0 °F 14.0 °F 55% 29.87 in 10.0 mi West 12.7 mph 23.0 mph N/A   Scattered Clouds
12:35 AM 28.4 °F 20.4 °F 14.0 °F 55% 29.88 in 10.0 mi West 8.1 mph 18.4 mph N/A   Scattered Clouds
12:55 AM 26.6 °F 16.2 °F 12.2 °F 55% 29.88 in 10.0 mi West 11.5 mph 17.3 mph N/A   Clear
1:15 AM 26.6 °F 17.5 °F 12.2 °F 55% 29.89 in 10.0 mi WNW 9.2 mph 16.1 mph N/A   Clear
1:35 AM 26.6 °F 16.2 °F 12.2 °F 55% 29.89 in 10.0 mi West 11.5 mph 19.6 mph N/A   Clear
1:55 AM 26.6 °F 18.2 °F 12.2 °F 55% 29.90 in 10.0 mi WNW 8.1 mph - N/A   Clear
2:15 AM 26.6 °F 21.2 °F 12.2 °F 55% 29.91 in 10.0 mi WNW 4.6 mph 9.2 mph N/A   Clear
2:35 AM 26.6 °F 17.5 °F 12.2 °F 55% 29.91 in 10.0 mi WNW 9.2 mph - N/A   Clear
2:55 AM 24.8 °F 20.5 °F 12.2 °F 59% 29.91 in 10.0 mi West 3.5 mph - N/A   Clear
3:15 AM 24.8 °F 16.9 °F 12.2 °F 59% 29.91 in 10.0 mi West 6.9 mph - N/A   Clear
3:35 AM 24.8 °F 16.9 °F 12.2 °F 59% 29.92 in 10.0 mi West 6.9 mph - N/A   Clear
3:55 AM 24.8 °F 16.9 °F 12.2 °F 59% 29.93 in 10.0 mi WNW 6.9 mph 19.6 mph N/A   Clear
4:15 AM 24.8 °F 16.9 °F 12.2 °F 59% 29.94 in 10.0 mi WNW 6.9 mph - N/A   Clear
5:55 AM 23.0 °F 18.4 °F 12.2 °F 63% 29.96 in 10.0 mi West 3.5 mph - N/A   Clear
6:15 AM 23.0 °F 17.0 °F 12.2 °F 63% 29.96 in 10.0 mi West 4.6 mph - N/A   Clear
6:35 AM 23.0 °F 17.0 °F 12.2 °F 63% 29.96 in 10.0 mi West 4.6 mph - N/A   Clear
6:55 AM 23.0 °F - 12.2 °F 63% 29.97 in 10.0 mi Calm Calm - N/A   Clear
7:15 AM 21.2 °F 16.4 °F 12.2 °F 68% 29.98 in 10.0 mi WSW 3.5 mph - N/A   Clear
7:35 AM 23.0 °F 18.4 °F 12.2 °F 63% 29.99 in 10.0 mi WSW 3.5 mph - N/A   Clear
7:55 AM 23.0 °F 15.8 °F 12.2 °F 63% 30.01 in 10.0 mi WSW 5.8 mph - N/A   Clear
8:15 AM 24.8 °F 16.1 °F 12.2 °F 59% 30.01 in 10.0 mi WSW 8.1 mph - N/A   Clear
8:35 AM 26.6 °F 19.1 °F 12.2 °F 55% 30.02 in 10.0 mi West 6.9 mph - N/A   Clear
8:55 AM 26.6 °F 20.0 °F 12.2 °F 55% 30.02 in 10.0 mi West 5.8 mph 9.2 mph N/A   Clear
9:15 AM 28.4 °F 20.4 °F 12.2 °F 51% 30.03 in 10.0 mi West 8.1 mph 18.4 mph N/A   Clear
9:35 AM 28.4 °F 17.0 °F 10.4 °F 47% 30.03 in 10.0 mi WNW 15.0 mph 21.9 mph N/A   Clear
9:55 AM 28.4 °F 19.7 °F 10.4 °F 47% 30.03 in 10.0 mi West 9.2 mph 19.6 mph N/A   Scattered Clouds
10:15 AM 28.4 °F 19.1 °F 12.2 °F 51% 30.02 in 10.0 mi West 10.4 mph - N/A   Scattered Clouds
10:35 AM 28.4 °F 18.0 °F 10.4 °F 47% 30.03 in 10.0 mi WNW 12.7 mph 19.6 mph N/A   Scattered Clouds
10:55 AM 30.2 °F 21.9 °F 12.2 °F 47% 30.03 in 10.0 mi West 9.2 mph - N/A   Scattered Clouds
11:15 AM 28.4 °F 18.5 °F 10.4 °F 47% 30.03 in 10.0 mi West 11.5 mph 19.6 mph N/A   Mostly Cloudy
11:35 AM 30.2 °F 20.2 °F 10.4 °F 44% 30.02 in 10.0 mi West 12.7 mph 21.9 mph N/A   Scattered Clouds
11:55 AM 30.2 °F 23.4 °F 12.2 °F 47% 30.01 in 10.0 mi West 6.9 mph 16.1 mph N/A   Scattered Clouds
12:15 PM 30.2 °F 21.3 °F 12.2 °F 47% 30.00 in 10.0 mi West 10.4 mph 20.7 mph N/A   Scattered Clouds
12:35 PM 30.2 °F 21.9 °F 12.2 °F 47% 29.99 in 10.0 mi West 9.2 mph 19.6 mph N/A   Scattered Clouds
12:55 PM 30.2 °F 20.2 °F 12.2 °F 47% 29.98 in 10.0 mi West 12.7 mph 19.6 mph N/A   Scattered Clouds
1:15 PM 32.0 °F 23.6 °F 12.2 °F 44% 29.97 in 10.0 mi West 10.4 mph 17.3 mph N/A   Scattered Clouds
1:35 PM 30.2 °F 22.6 °F 12.2 °F 47% 29.97 in 10.0 mi West 8.1 mph 18.4 mph N/A   Scattered Clouds
1:55 PM 30.2 °F 19.3 °F 12.2 °F 47% 29.96 in 10.0 mi West 15.0 mph 19.6 mph N/A   Clear
2:15 PM 30.2 °F 21.3 °F 14.0 °F 51% 29.96 in 10.0 mi WSW 10.4 mph 18.4 mph N/A   Clear
2:35 PM 32.0 °F 24.8 °F 12.2 °F 44% 29.96 in 10.0 mi WNW 8.1 mph - N/A   Clear
2:55 PM 32.0 °F 22.1 °F 12.2 °F 44% 29.96 in 10.0 mi WNW 13.8 mph 19.6 mph N/A   Clear
3:15 PM 32.0 °F 24.8 °F 14.0 °F 48% 29.96 in 10.0 mi West 8.1 mph - N/A   Scattered Clouds
3:35 PM 32.0 °F 24.8 °F 12.2 °F 44% 29.96 in 10.0 mi West 8.1 mph - N/A   Scattered Clouds
3:55 PM 32.0 °F 24.8 °F 14.0 °F 48% 29.96 in 10.0 mi West 8.1 mph - N/A   Clear
4:15 PM 32.0 °F 25.6 °F 14.0 °F 48% 29.96 in 10.0 mi WNW 6.9 mph - N/A   Clear
4:35 PM 32.0 °F - 14.0 °F 48% 29.96 in 10.0 mi Calm Calm - N/A   Scattered Clouds
4:55 PM 32.0 °F 26.4 °F 14.0 °F 48% 29.96 in 10.0 mi West 5.8 mph - N/A   Clear
5:15 PM 32.0 °F 28.7 °F 14.0 °F 48% 29.95 in 10.0 mi West 3.5 mph - N/A   Clear
5:35 PM 30.2 °F 26.7 °F 14.0 °F 51% 29.96 in 10.0 mi West 3.5 mph - N/A   Clear
5:55 PM 30.2 °F - 14.0 °F 51% 29.96 in 10.0 mi Calm Calm - N/A   Clear
6:15 PM 28.4 °F - 14.0 °F 55% 29.96 in 10.0 mi Calm Calm - N/A   Clear
6:35 PM 26.6 °F - 17.6 °F 69% 29.96 in 10.0 mi Calm Calm - N/A   Clear
7:15 PM 24.8 °F - 17.6 °F 74% 29.96 in 10.0 mi Calm Calm - N/A   Clear
7:35 PM 23.0 °F - 17.6 °F 80% 29.96 in 10.0 mi Calm Calm - N/A   Clear
7:55 PM 23.0 °F - 17.6 °F 80% 29.96 in 10.0 mi Calm Calm - N/A   Clear
8:15 PM 23.0 °F - 17.6 °F 80% 29.96 in 10.0 mi Calm Calm - N/A   Scattered Clouds
8:35 PM 24.8 °F - 17.6 °F 74% 29.96 in 10.0 mi Calm Calm - N/A   Mostly Cloudy
8:55 PM 26.6 °F - 21.2 °F 80% 29.96 in 10.0 mi Calm Calm - N/A   Overcast
9:15 PM 26.6 °F - 21.2 °F 80% 29.95 in 10.0 mi Calm Calm - N/A   Mostly Cloudy
9:35 PM 28.4 °F - 23.0 °F 80% 29.95 in 10.0 mi Calm Calm - N/A   Clear
9:55 PM 28.4 °F 24.6 °F 23.0 °F 80% 29.96 in 10.0 mi South 3.5 mph - N/A   Clear
10:15 PM 30.2 °F 26.7 °F 21.2 °F 69% 29.95 in 10.0 mi South 3.5 mph - N/A   Mostly Cloudy
10:35 PM 32.0 °F - 21.2 °F 64% 29.94 in 10.0 mi Calm Calm - N/A   Overcast
10:55 PM 32.0 °F 27.5 °F 21.2 °F 64% 29.94 in 7.0 mi South 4.6 mph - N/A   Overcast
11:15 PM 30.2 °F 24.3 °F 23.0 °F 75% 29.93 in 7.0 mi South 5.8 mph - N/A   Overcast
11:35 PM 30.2 °F 24.3 °F 23.0 °F 75% 29.93 in 10.0 mi South 5.8 mph - N/A   Overcast
11:55 PM 30.2 °F 25.4 °F 24.8 °F 80% 29.92 in 10.0 mi South 4.6 mph - N/A   Mostly Cloudy